Lid_Strength_Index
13 14 14 15 16 17 17 17 17 18 19 19 19 19 19 19 19 19 19 20 20 19
14 15 15 16 17 17 17 17 19 19 19 19 19 19 20 20 20 20 19 19 19 19
15 15 16 17 18 18 19 19 19 20 20 20 20 20 20 20 19 20 19 18 19 19
16 16 18 18 19 19 19 19 20 20 20 20 20 19 20 20 19 19 19 19 19 18
16 18 19 19 19 19 20 20 20 20 20 20 20 19 20 19 19 19 19 19 18 18
18 19 19 20 20 20 20 20 20 20 20 20 20 19 19 19 19 19 19 19 19 18
19 19 19 19 19 20 20 20 20 20 20 19 19 18 18 18 19 19 18 17 17 16
18 19 19 19 19 19 20 20 20 20 20 20 19 18 18 17 17 17 17 16 15 14
18 19 18 19 19 19 19 20 20 20 20 19 18 15 14 13 14 15 15 16 15 14
18 18 18 19 19 19 20 20 20 20 19 19 19 15 13 13 14 15 16 15 14 14
18 18 19 19 19 19 19 19 19 19 19 19 18 14 13 13 15 15 15 14 14 14
18 19 19 19 19 19 19 19 19 18 19 19 18 15 14 13 14 15 15 14 14 13
18 18 19 18 19 18 19 18 17 17 18 17 18 15 14 13 16 16 15 13 13 11
17 18 18 18 18 18 19 18 19 18 18 18 17 17 13 12 14 14 13 14 14 13